Location: Newark
(58.2667°N, 22.3833°E)
Time: 04:32:47
(UTC+00:00)

OTV 5 (USA 277) - Visible Passes

Search period start: 16 October 2019 00:00
Search period end: 26 October 2019 00:00
Orbit: 310 x 324 km, 54.5° (Epoch: 08 October)

Date Brightness Start Highest point End Pass type
(mag) Time Alt. Az. Time Alt. Az. Time Alt. Az.
16 Oct ? 02:36:26 19° SE 02:36:26 19° SE 02:37:29 10° SE visible
16 Oct ? 04:07:19 10° WSW 04:08:43 13° SSW 04:10:07 10° S visible
17 Oct ? 02:50:43 16° SSE 02:50:43 16° SSE 02:51:40 10° SE visible
18 Oct ? 03:05:07 12° S 03:05:07 12° S 03:05:32 10° SSE visible
